594  
ASUS44 KMOB 282213  
RWRMOB  
REGIONAL WEATHER ROUNDUP  
NATIONAL WEATHER SERVICE MOBILE AL  
400 PM CST SUN FEB 28 2021  
 
NOTE: "FAIR" INDICATES FEW OR NO CLOUDS BELOW 12,000 FEET WITH NO  
SIGNIFICANT WEATHER AND/OR S TO VISIBILITY
.  
 
* THESE STATIONS ARE PART OF THE UNIVERSITY OF SOUTH ALABAMA  
MESONET AND ARE NOT UNDER NWS OR FAA QUALITY CONTROL.
 
 
ALZ061>064-282300-  
COASTAL ALABAMA  
 
CITY SKY/WX TMP DP RH WIND PRES REMARKS
 
MOBILE REG APT CLOUDY 76 68 76 S16G22 30.02F  
BROOKLEY FIELD MOSUNNY 74 69 85 VRB7 30.03F  
USA CAMPUS* N/A 77 68 73 SW13 N/A  
DOG RIVER* N/A 73 68 83 SE8 30.04F  
 
 
CITY SKY/WX TMP DP RH WIND PRES REMARKS
 
GULF SHORES PTSUNNY 75 70 83 SE7 30.03F  
 

 
 
ALZ051>060-282300-  
INTERIOR SOUTHWEST AND SOUTH CENTRAL ALABAMA  
 
CITY SKY/WX TMP DP RH WIND PRES REMARKS
 
GREENVILLE MOSUNNY 80 59 48 S9G21 29.99F  
EVERGREEN MOSUNNY 84 63 49 S12G20 30.01F  
ATMORE* N/A 77 66 69 S10 30.03F  
ANDALUSIA/OPP PTSUNNY 81 63 54 S5 30.02F  
ANDALUSIA* N/A 77 64 65 S8 30.04F  
FLORALA APT PTSUNNY 79 64 60 S15G22 30.06F  
FLORALA* N/A 79 66 65 CALM 30.05S  
 

 
 
FLZ001>006-282300-  
WESTERN FLORIDA PANHANDLE  
 
CITY SKY/WX TMP DP RH WIND PRES REMARKS
 
PENSACOLA CLOUDY 76 70 82 SE10 30.04F  
NAS PENSACOLA PTSUNNY 75 69 81 SE7 30.03F  
MILTON PTSUNNY 76 67 73 S13 30.04F  
WHTNG S FIELD NOT AVBL  
 
 
CITY SKY/WX TMP DP RH WIND PRES REMARKS
 
JAY* N/A 75 66 73 CALM 30.04S  
DUKE FIELD PTSUNNY 73 61 64 S10 30.05F  
CRESTVIEW PTSUNNY 77 68 73 S8G16 30.06F  
VALPARAISO PTSUNNY 73 68 84 S13 30.06S  
DESTIN CLOUDY 71 67 87 SE10 30.05F  
 

 
 
MSZ076-079-282300-  
INTERIOR SOUTHEAST MISSISSIPPI  
 
CITY SKY/WX TMP DP RH WIND PRES REMARKS
 
LEAKESVILLE* NOT AVBL  
AGRICOLA* N/A 77 66 69 S3 30.00  
 

 
 
MARINE OBSERVATIONS  
 
STATION/POSITION TIME TEMP WIND PRES WAVE
 
AIR SEA DIR/SP/G HT/PER  
(UTC) (F) (DEG/KT/KT) (MB) (FT/S)  
PETIT BOIS ISLND 2130 70 140/ 7/ 9 1016.5F  
E DAUPHIN ISLAND 2200 68 140/ 11/ 11 1016.4F  
MIDDLE BAY LIGHT 2200 69 110/ 10 1016.3  
USCG MOBILE BAY 2130 71 60 170/ 8/ 11 1016.1F  
STATE DOCKS 2130 71 53 1017.0F  
FORT MORGAN 2130 69 130/ 12/ 13 1016.6F  
12 S ORANGE BCH 2150 69 67 1017.2F 3/ 7  
PENSACOLA BAY 2130 76 66 180/ 2/ 5 1017.6F  
 

 
 
SELECTED LOCATIONS ACROSS THE REGION  
 
CITY SKY/WX TMP DP RH WIND PRES REMARKS
 
NEW ORLEANS PTSUNNY 81 68 64 S18G24 29.97F  
GULFPORT CLOUDY 76 68 76 SE8 30.00S  
PASCAGOULA AP CLOUDY 79 69 71 S9 30.01F  
PASCAGOULA* N/A 75 70 83 CALM 30.00  
HATTIESBURG MOSUNNY 81 63 54 S16G24 29.97F  
LAUREL PTSUNNY 83 65 54 S12G18 29.97F  
MERIDIAN PTSUNNY 81 59 47 S13 29.95F  
JACKSON PTSUNNY 82 63 52 S20G25 29.91F  
MONTGOMERY PTSUNNY 82 58 43 S14 29.99F  
TROY PTSUNNY 83 60 45 S14 30.02F  
ASHFORD* N/A 77 64 65 S8 30.04F  
DOTHAN PTSUNNY 81 63 54 S14 30.07F  
PANAMA CITY PTSUNNY 75 69 81 SE12 30.05F  
 

 
 
 
 
CLICK HERE TO GO TO PREVIOUS BULLETINS.

The Nexlab AL Page
The Nexlab FL Page
The Nexlab MS Page Main Text Page